Regional Weather Roundup
Issued by NWS

Home | Current Version | Previous Version | Text Only | Print | Product List | Glossary Off
Versions: 1 2 3 4 5 6 7 8 9 10 11 12 13 14 15 16 17 18 19 20 21 22 23 24 25 26 27 28 29 30 31 32 33 34 35 36 37 38 39 40 41 42 43 44 45 46 47 48 49 50

000
ASUS43 KLSX 292007
RWRMO

WEATHER SUMMARY FOR MISSOURI
NATIONAL WEATHER SERVICE SPRINGFIELD MO
300 PM CDT WED JUL 29 2015

NOTE: "FAIR" INDICATES FEW OR NO CLOUDS BELOW 12,000 FEET WITH NO
       SIGNIFICANT WEATHER AND/OR OBSTRUCTIONS TO VISIBILITY.
       CURRENT SKY AND/OR WEATHER CONDITIONS ARE NOT AVAILABLE FOR
       CHILLICOTHE AND FARMINGTON.

MOZ001>031-035>038-043-044-053-054-292100-
...NORTHERN AND WESTERN MISSOURI...

CITY           SKY/WX    TMP DP  RH WIND       PRES   REMARKS
KANSAS CTY INT PTSUNNY   83  66  56 NE9       30.15F
KANSAS C DTWN  MOSUNNY   85  67  54 NE8       30.13F
LEE`S SUMMIT   SUNNY     85  62  46 NE13      30.15S
ST JOSEPH      PTSUNNY   83  65  54 NE8       30.14F
CHILLICOTHE      N/A     85  62  46 N7        30.15S
KIRKSVILLE     MOSUNNY   83  62  49 N9        30.15S

$$
MOZ066>068-077>081-088>096-101>105-292100-
...SOUTHWEST MISSOURI...

CITY           SKY/WX    TMP DP  RH WIND       PRES   REMARKS
SPRINGFIELD    MOSUNNY   94  70  45 N9        30.08S HX 100
JOPLIN         MOSUNNY   96  71  44 E6        30.06F HX 103

$$
MOZ032>034-039>042-045>050-055>058-069>072-292100-
...CENTRAL MISSOURI...

CITY           SKY/WX    TMP DP  RH WIND       PRES   REMARKS
COLUMBIA       SUNNY     86  62  44 N9        30.12R
JEFFERSON CITY SUNNY     87  65  47 N8        30.09R
ROLLA          MOSUNNY   84  69  60 N7        30.10R
SEDALIA        SUNNY     87  66  49 VRB7      30.13F
WHITEMAN AFB   MOSUNNY   87  66  48 N10       30.12F
WARRENSBURG    SUNNY     82  63  51 N10       30.13S
OSAGE BEACH    MOSUNNY   84  68  58 N6        30.11S

$$
MOZ051-052-059>065-292100-
...EAST CENTRAL MISSOURI...

CITY           SKY/WX    TMP DP  RH WIND       PRES   REMARKS
ST LOUIS INTL  MOSUNNY   89  72  56 NW12      30.06R HX  96
SPIRIT OF STL  MOSUNNY   88  73  61 NW14      30.05S HX  95
ST CHARLES     MOSUNNY   87  76  69 N10       30.05S HX  97

$$
MOZ072>076-082>087-097>100-106>115-292100-
...SOUTH CENTRAL AND SOUTHEAST MISSOURI...

CITY           SKY/WX    TMP DP  RH WIND       PRES   REMARKS
CAPE GIRARDEAU MOSUNNY   96  77  54 W6        29.96F HX 111
FARMINGTON     SUNNY     86  73  66 N8        30.09S HX  93
POPLAR BLUFF   SUNNY     97  75  49 VRB5      29.97F HX 109
WEST PLAINS    SUNNY     93  73  52 NW5       30.08F HX 102

$$



USA.gov is the U.S. government's official web portal to all federal, state and local government web resources and services.